Location: Unspecified
(0.0000°N, 0.0000°E)
Time: 04:30:39
(UTC+02:00)

AO-40 - Visible Passes

Search period start: 07 July 2015 00:00
Search period end: 17 July 2015 00:00
Orbit: 1052 x 58768 km, 9.3° (Epoch: 02 July)

Date Brightness Start Highest point End Pass type
(mag) Time Alt. Az. Time Alt. Az. Time Alt. Az.
10 Jul ? 02:57:00 60° ESE 02:57:00 60° ESE 16:11:46 10° W visible
10 Jul ? 21:26:25 10° W 21:34:28 46° S 21:36:26 33° SE visible
10 Jul ? 21:26:25 10° W 21:34:28 46° S 16:31:00 10° E visible
13 Jul ? 07:26:41 10° W 02:31:10 53° ESE 16:04:15 10° W visible
14 Jul ? 20:57:32 10° W 21:06:46 48° S 21:10:17 20° ESE visible
14 Jul ? 20:57:33 10° W 21:06:46 48° S 16:03:19 10° E visible
